| time (UTC) | temp F | wind direction | speed MPH | gust MPH | rain 1hr in | rain 24hr in | rain mn in | humidity % | barometer mb |
| 20260508025306 | 44 | 117 | 7.0 | 8.0 | 0.00 | 0.00 | 0.00 | 94 | 1018.2 |
| 20260508024803 | 44 | 118 | 7.0 | 8.0 | 0.00 | 0.00 | 0.00 | 95 | 1018.1 |
| 20260508023803 | 44 | 122 | 6.0 | 7.0 | 0.00 | 0.00 | 0.00 | 95 | 1018.3 |
| 20260508022802 | 44 | 121 | 6.0 | 7.0 | 0.00 | 0.00 | 0.00 | 95 | 1018.2 |
| 20260508022306 | 44 | 129 | 7.0 | 8.0 | 0.00 | 0.00 | 0.00 | 95 | 1018.3 |
| 20260508021802 | 44 | 120 | 7.0 | 8.0 | 0.00 | 0.00 | 0.00 | 95 | 1018.3 |
| 20260508021303 | 44 | 130 | 6.0 | 7.0 | 0.00 | 0.00 | 0.00 | 95 | 1018.3 |
| 20260508020802 | 44 | 122 | 6.0 | 6.0 | 0.00 | 0.00 | 0.00 | 95 | 1018.3 |
| 20260508020303 | 43 | 127 | 5.0 | 6.0 | 0.00 | 0.00 | 0.00 | 94 | 1018.3 |
| 20260508015803 | 43 | 118 | 5.0 | 6.0 | 0.00 | 0.00 | 0.00 | 94 | 1018.2 |
| 20260508015305 | 44 | 121 | 5.0 | 6.0 | 0.00 | 0.00 | 0.00 | 94 | 1018.2 |
| 20260508014802 | 44 | 115 | 6.0 | 7.0 | 0.00 | 0.00 | 0.00 | 94 | 1018.2 |
| 20260508014302 | 44 | 110 | 6.0 | 7.0 | 0.00 | 0.00 | 0.00 | 93 | 1018.1 |
| 20260508013802 | 44 | 125 | 6.0 | 6.0 | 0.00 | 0.00 | 0.00 | 93 | 1018.2 |
| 20260508013303 | 44 | 119 | 6.0 | 7.0 | 0.00 | 0.00 | 0.00 | 93 | 1018.2 |
| 20260508011802 | 45 | 117 | 6.0 | 7.0 | 0.00 | 0.00 | 0.00 | 92 | 1018.3 |
| 20260508011303 | 45 | 112 | 7.0 | 8.0 | 0.00 | 0.00 | 0.00 | 92 | 1018.3 |
| 20260508010804 | 45 | 114 | 7.0 | 7.0 | 0.00 | 0.00 | 0.00 | 93 | 1018.4 |
| 20260508010302 | 45 | 112 | 6.0 | 7.0 | 0.00 | 0.00 | 0.00 | 93 | 1018.3 |
| 20260508004804 | 45 | 111 | 6.0 | 7.0 | 0.00 | 0.00 | 0.00 | 93 | 1018.4 |
| 20260508004302 | 45 | 109 | 6.0 | 7.0 | 0.00 | 0.00 | 0.00 | 93 | 1018.4 |
| 20260508003803 | 45 | 113 | 6.0 | 6.0 | 0.00 | 0.00 | 0.00 | 92 | 1018.4 |
| 20260508003303 | 45 | 117 | 6.0 | 6.0 | 0.00 | 0.00 | 0.00 | 92 | 1018.5 |
| 20260508002306 | 45 | 123 | 6.0 | 6.0 | 0.00 | 0.00 | 0.00 | 92 | 1018.6 |
| 20260508001802 | 45 | 122 | 6.0 | 6.0 | 0.00 | 0.00 | 0.00 | 92 | 1018.6 |
| 20260508001303 | 45 | 121 | 6.0 | 6.0 | 0.00 | 0.00 | 0.00 | 92 | 1018.5 |
| 20260508000802 | 45 | 123 | 6.0 | 6.0 | 0.00 | 0.00 | 0.00 | 92 | 1018.6 |
| 20260508000305 | 45 | 120 | 6.0 | 6.0 | 0.00 | 0.00 | 0.00 | 92 | 1018.6 |
| 20260507234802 | 46 | 130 | 6.0 | 7.0 | 0.00 | 0.00 | 0.00 | 92 | 1018.6 |
| 20260507233803 | 46 | 128 | 6.0 | 7.0 | 0.00 | 0.00 | 0.00 | 91 | 1018.5 |
| 20260507233302 | 46 | 126 | 6.0 | 7.0 | 0.00 | 0.00 | 0.00 | 91 | 1018.6 |
| 20260507232804 | 46 | 127 | 5.0 | 6.0 | 0.00 | 0.00 | 0.00 | 91 | 1018.5 |
| 20260507232306 | 46 | 119 | 5.0 | 6.0 | 0.00 | 0.00 | 0.00 | 90 | 1018.5 |
| 20260507231802 | 46 | 115 | 5.0 | 6.0 | 0.00 | 0.00 | 0.00 | 90 | 1018.6 |
| 20260507231303 | 46 | 113 | 6.0 | 6.0 | 0.00 | 0.00 | 0.00 | 90 | 1018.6 |
| 20260507230803 | 46 | 118 | 6.0 | 8.0 | 0.00 | 0.00 | 0.00 | 90 | 1018.7 |
| 20260507230302 | 46 | 116 | 6.0 | 8.0 | 0.00 | 0.00 | 0.00 | 89 | 1018.6 |
| 20260507225803 | 47 | 125 | 6.0 | 8.0 | 0.00 | 0.00 | 0.00 | 89 | 1018.7 |
| 20260507225306 | 47 | 134 | 5.0 | 6.0 | 0.00 | 0.00 | 0.00 | 89 | 1018.8 |
| 20260507224803 | 47 | 123 | 3.0 | 6.0 | 0.00 | 0.00 | 0.00 | 89 | 1018.8 |
| 20260507224303 | 47 | 115 | 5.0 | 6.0 | 0.00 | 0.00 | 0.00 | 88 | 1018.7 |
| 20260507223803 | 47 | 118 | 6.0 | 8.0 | 0.00 | 0.00 | 0.00 | 88 | 1018.8 |
| 20260507222802 | 48 | 126 | 6.0 | 8.0 | 0.00 | 0.00 | 0.00 | 87 | 1018.7 |
| 20260507221803 | 48 | 136 | 7.0 | 10.0 | 0.00 | 0.00 | 0.00 | 87 | 1018.7 |
| 20260507221304 | 48 | 122 | 6.0 | 9.0 | 0.00 | 0.00 | 0.00 | 86 | 1018.6 |
| 20260507220802 | 48 | 114 | 6.0 | 8.0 | 0.00 | 0.00 | 0.00 | 86 | 1018.6 |
| 20260507215803 | 49 | 118 | 6.0 | 9.0 | 0.00 | 0.00 | 0.00 | 86 | 1018.6 |
| 20260507215306 | 49 | 115 | 7.0 | 8.0 | 0.00 | 0.00 | 0.00 | 85 | 1018.6 |
| 20260507214303 | 49 | 127 | 5.0 | 7.0 | 0.00 | 0.00 | 0.00 | 85 | 1018.7 |
| 20260507213803 | 49 | 116 | 6.0 | 10.0 | 0.00 | 0.00 | 0.00 | 84 | 1018.7 |
| 20260507213303 | 49 | 127 | 7.0 | 10.0 | 0.00 | 0.00 | 0.00 | 84 | 1018.7 |
| 20260507212803 | 49 | 129 | 7.0 | 12.0 | 0.00 | 0.00 | 0.00 | 84 | 1018.7 |
| 20260507212306 | 49 | 118 | 7.0 | 9.0 | 0.00 | 0.00 | 0.00 | 84 | 1018.6 |
| 20260507211802 | 49 | 116 | 7.0 | 12.0 | 0.00 | 0.00 | 0.00 | 83 | 1018.6 |
| 20260507211302 | 50 | 114 | 8.0 | 10.0 | 0.00 | 0.00 | 0.00 | 83 | 1018.6 |
| 20260507210803 | 50 | 118 | 7.0 | 12.0 | 0.00 | 0.00 | 0.00 | 83 | 1018.5 |
| 20260507210303 | 50 | 122 | 7.0 | 12.0 | 0.00 | 0.00 | 0.00 | 82 | 1018.5 |
| 20260507205803 | 50 | 123 | 6.0 | 9.0 | 0.00 | 0.00 | 0.00 | 82 | 1018.4 |
| 20260507205306 | 50 | 118 | 8.0 | 12.0 | 0.00 | 0.00 | 0.00 | 83 | 1018.4 |
| 20260507204803 | 50 | 119 | 5.0 | 7.0 | 0.00 | 0.00 | 0.00 | 82 | 1018.4 |
| 20260507204303 | 50 | 109 | 6.0 | 10.0 | 0.00 | 0.00 | 0.00 | 82 | 1018.3 |
| 20260507203802 | 50 | 102 | 6.0 | 10.0 | 0.00 | 0.00 | 0.00 | 82 | 1018.2 |
| 20260507202803 | 51 | 100 | 9.0 | 12.0 | 0.00 | 0.00 | 0.00 | 81 | 1018.0 |
| 20260507202306 | 51 | 101 | 11.0 | 13.0 | 0.00 | 0.00 | 0.00 | 81 | 1017.9 |
| 20260507201803 | 51 | 103 | 10.0 | 13.0 | 0.00 | 0.00 | 0.00 | 81 | 1018.0 |
| 20260507201302 | 51 | 99 | 7.0 | 9.0 | 0.00 | 0.00 | 0.00 | 81 | 1018.1 |
| 20260507200803 | 51 | 101 | 7.0 | 9.0 | 0.00 | 0.00 | 0.00 | 80 | 1018.0 |
| 20260507200304 | 51 | 107 | 8.0 | 10.0 | 0.00 | 0.00 | 0.00 | 80 | 1018.1 |
| 20260507195803 | 51 | 108 | 7.0 | 10.0 | 0.00 | 0.00 | 0.00 | 80 | 1018.1 |
| 20260507195305 | 51 | 104 | 7.0 | 10.0 | 0.00 | 0.00 | 0.00 | 80 | 1018.1 |
| 20260507194303 | 51 | 109 | 6.0 | 8.0 | 0.00 | 0.00 | 0.00 | 80 | 1018.1 |
| 20260507193804 | 52 | 104 | 6.0 | 12.0 | 0.00 | 0.00 | 0.00 | 79 | 1018.0 |
| 20260507193303 | 52 | 97 | 9.0 | 12.0 | 0.00 | 0.00 | 0.00 | 79 | 1017.9 |
| 20260507192802 | 52 | 113 | 10.0 | 13.0 | 0.00 | 0.00 | 0.00 | 79 | 1017.8 |
| 20260507192306 | 52 | 109 | 8.0 | 12.0 | 0.00 | 0.00 | 0.00 | 79 | 1017.7 |
| 20260507191804 | 52 | 105 | 9.0 | 14.0 | 0.00 | 0.00 | 0.00 | 79 | 1017.7 |
| 20260507190804 | 52 | 104 | 9.0 | 14.0 | 0.00 | 0.00 | 0.00 | 78 | 1017.7 |
| 20260507190303 | 52 | 98 | 10.0 | 13.0 | 0.00 | 0.00 | 0.00 | 78 | 1017.7 |
| 20260507185803 | 52 | 102 | 9.0 | 14.0 | 0.00 | 0.00 | 0.00 | 78 | 1017.8 |
| 20260507185305 | 52 | 109 | 10.0 | 15.0 | 0.00 | 0.00 | 0.00 | 77 | 1017.8 |
| 20260507184302 | 52 | 106 | 10.0 | 16.0 | 0.00 | 0.00 | 0.00 | 77 | 1017.8 |
| 20260507183803 | 53 | 107 | 12.0 | 15.0 | 0.00 | 0.00 | 0.00 | 77 | 1017.8 |
| 20260507183303 | 53 | 110 | 11.0 | 14.0 | 0.00 | 0.00 | 0.00 | 77 | 1017.7 |
| 20260507182803 | 53 | 112 | 13.0 | 16.0 | 0.00 | 0.00 | 0.00 | 76 | 1017.7 |
| 20260507182306 | 53 | 101 | 11.0 | 15.0 | 0.00 | 0.00 | 0.00 | 76 | 1017.6 |
| 20260507181803 | 53 | 108 | 11.0 | 15.0 | 0.00 | 0.00 | 0.00 | 75 | 1017.5 |
| 20260507181303 | 53 | 98 | 10.0 | 15.0 | 0.00 | 0.00 | 0.00 | 75 | 1017.4 |
| 20260507180303 | 54 | 105 | 12.0 | 16.0 | 0.00 | 0.00 | 0.00 | 74 | 1017.4 |
| 20260507175306 | 54 | 109 | 12.0 | 15.0 | 0.00 | 0.00 | 0.00 | 73 | 1017.5 |
| 20260507174802 | 54 | 113 | 10.0 | 14.0 | 0.00 | 0.00 | 0.00 | 74 | 1017.5 |
| 20260507174302 | 54 | 108 | 9.0 | 14.0 | 0.00 | 0.00 | 0.00 | 73 | 1017.3 |
| 20260507173803 | 55 | 118 | 9.0 | 14.0 | 0.00 | 0.00 | 0.00 | 73 | 1017.3 |
| 20260507173302 | 55 | 101 | 9.0 | 13.0 | 0.00 | 0.00 | 0.00 | 72 | 1017.2 |
| 20260507172805 | 55 | 103 | 9.0 | 13.0 | 0.00 | 0.00 | 0.00 | 72 | 1017.3 |
| 20260507172307 | 55 | 103 | 10.0 | 13.0 | 0.00 | 0.00 | 0.00 | 71 | 1017.4 |
| 20260507171802 | 55 | 101 | 11.0 | 14.0 | 0.00 | 0.00 | 0.00 | 71 | 1017.3 |
| 20260507171302 | 55 | 110 | 10.0 | 13.0 | 0.00 | 0.00 | 0.00 | 70 | 1017.3 |
| 20260507170802 | 55 | 99 | 9.0 | 12.0 | 0.00 | 0.00 | 0.00 | 70 | 1017.4 |
| 20260507170303 | 55 | 105 | 8.0 | 13.0 | 0.00 | 0.00 | 0.00 | 71 | 1017.5 |
| 20260507165802 | 55 | 90 | 6.0 | 12.0 | 0.00 | 0.00 | 0.00 | 71 | 1017.5 |
| 20260507165306 | 55 | 91 | 9.0 | 12.0 | 0.00 | 0.00 | 0.00 | 71 | 1017.4 |
| 20260507164803 | 55 | 78 | 7.0 | 13.0 | 0.00 | 0.00 | 0.00 | 71 | 1017.4 |
| 20260507164303 | 55 | 90 | 10.0 | 14.0 | 0.00 | 0.00 | 0.00 | 71 | 1017.3 |
| 20260507163803 | 55 | 87 | 6.0 | 9.0 | 0.00 | 0.00 | 0.00 | 72 | 1017.3 |
| 20260507163302 | 55 | 97 | 7.0 | 12.0 | 0.00 | 0.00 | 0.00 | 71 | 1017.3 |
| 20260507162804 | 55 | 102 | 8.0 | 10.0 | 0.00 | 0.00 | 0.00 | 71 | 1017.3 |
| 20260507162306 | 55 | 109 | 8.0 | 10.0 | 0.00 | 0.00 | 0.00 | 72 | 1017.4 |
| 20260507161803 | 55 | 88 | 5.0 | 8.0 | 0.00 | 0.00 | 0.00 | 72 | 1017.4 |
| 20260507161303 | 55 | 85 | 5.0 | 8.0 | 0.00 | 0.00 | 0.00 | 72 | 1017.5 |
| 20260507160803 | 55 | 25 | 4.0 | 6.0 | 0.00 | 0.00 | 0.00 | 73 | 1017.6 |
| 20260507160306 | 55 | 21 | 2.0 | 5.0 | 0.00 | 0.00 | 0.00 | 74 | 1017.5 |
| 20260507155803 | 55 | 52 | 2.0 | 6.0 | 0.00 | 0.00 | 0.00 | 73 | 1017.5 |
| 20260507155306 | 55 | 24 | 2.0 | 5.0 | 0.00 | 0.00 | 0.00 | 74 | 1017.6 |
| 20260507154803 | 55 | 23 | 3.0 | 9.0 | 0.00 | 0.00 | 0.00 | 74 | 1017.7 |
| 20260507154303 | 55 | 39 | 4.0 | 8.0 | 0.00 | 0.00 | 0.00 | 73 | 1017.4 |
| 20260507153803 | 55 | 39 | 3.0 | 7.0 | 0.00 | 0.00 | 0.00 | 73 | 1017.4 |
| 20260507153303 | 55 | 68 | 5.0 | 8.0 | 0.00 | 0.00 | 0.00 | 73 | 1017.4 |
| 20260507152803 | 56 | 67 | 3.0 | 8.0 | 0.00 | 0.00 | 0.00 | 73 | 1017.4 |
| 20260507152306 | 55 | 77 | 4.0 | 8.0 | 0.00 | 0.00 | 0.00 | 73 | 1017.6 |
| 20260507151804 | 56 | 32 | 5.0 | 9.0 | 0.00 | 0.00 | 0.00 | 72 | 1017.7 |
| 20260507151303 | 56 | 78 | 6.0 | 10.0 | 0.00 | 0.00 | 0.00 | 74 | 1017.7 |
| 20260507145803 | 56 | 23 | 6.0 | 9.0 | 0.00 | 0.00 | 0.00 | 74 | 1017.5 |
| 20260507144803 | 55 | 84 | 5.0 | 12.0 | 0.00 | 0.00 | 0.00 | 75 | 1017.5 |
| 20260507144303 | 55 | 28 | 7.0 | 10.0 | 0.00 | 0.00 | 0.00 | 75 | 1017.6 |
| 20260507143802 | 55 | 55 | 6.0 | 12.0 | 0.00 | 0.00 | 0.00 | 76 | 1017.6 |
| 20260507143303 | 55 | 61 | 7.0 | 12.0 | 0.00 | 0.00 | 0.00 | 76 | 1017.5 |
| 20260507142803 | 55 | 49 | 8.0 | 13.0 | 0.00 | 0.00 | 0.00 | 78 | 1017.8 |
| 20260507142306 | 54 | 41 | 7.0 | 12.0 | 0.00 | 0.00 | 0.00 | 77 | 1017.9 |
| 20260507141804 | 54 | 44 | 7.0 | 12.0 | 0.00 | 0.00 | 0.00 | 76 | 1018.0 |
| 20260507140304 | 54 | 37 | 9.0 | 13.0 | 0.00 | 0.00 | 0.00 | 77 | 1017.9 |
| 20260507135803 | 54 | 50 | 6.0 | 12.0 | 0.00 | 0.00 | 0.00 | 78 | 1018.0 |
| 20260507135306 | 54 | 48 | 7.0 | 12.0 | 0.00 | 0.00 | 0.00 | 79 | 1017.9 |
| 20260507134803 | 53 | 29 | 7.0 | 12.0 | 0.00 | 0.00 | 0.00 | 78 | 1018.1 |
| 20260507134303 | 53 | 37 | 6.0 | 10.0 | 0.00 | 0.00 | 0.00 | 78 | 1018.0 |
| 20260507133803 | 53 | 36 | 5.0 | 10.0 | 0.00 | 0.00 | 0.00 | 79 | 1018.3 |
| 20260507133304 | 53 | 24 | 5.0 | 9.0 | 0.00 | 0.00 | 0.00 | 79 | 1018.2 |
| 20260507132803 | 53 | 30 | 6.0 | 12.0 | 0.00 | 0.00 | 0.00 | 79 | 1018.2 |
| 20260507132307 | 53 | 37 | 6.0 | 12.0 | 0.00 | 0.00 | 0.00 | 78 | 1018.2 |
| 20260507131803 | 53 | 29 | 5.0 | 12.0 | 0.00 | 0.00 | 0.00 | 79 | 1018.3 |
| 20260507131305 | 54 | 33 | 6.0 | 10.0 | 0.00 | 0.00 | 0.00 | 78 | 1018.3 |
| 20260507130803 | 54 | 49 | 6.0 | 12.0 | 0.00 | 0.00 | 0.00 | 78 | 1018.2 |
| 20260507130303 | 54 | 27 | 4.0 | 12.0 | 0.00 | 0.00 | 0.00 | 78 | 1018.3 |
| 20260507125803 | 54 | 58 | 5.0 | 9.0 | 0.00 | 0.00 | 0.00 | 77 | 1018.3 |
| 20260507124303 | 54 | 46 | 6.0 | 9.0 | 0.00 | 0.00 | 0.00 | 76 | 1018.1 |
| 20260507123303 | 54 | 34 | 5.0 | 10.0 | 0.00 | 0.00 | 0.00 | 74 | 1018.2 |
| 20260507122804 | 54 | 21 | 6.0 | 12.0 | 0.00 | 0.00 | 0.00 | 74 | 1018.3 |
| 20260507122306 | 54 | 44 | 7.0 | 14.0 | 0.00 | 0.00 | 0.00 | 76 | 1018.2 |
| 20260507121803 | 54 | 40 | 6.0 | 12.0 | 0.00 | 0.00 | 0.00 | 76 | 1018.2 |
| 20260507121303 | 53 | 27 | 7.0 | 12.0 | 0.00 | 0.00 | 0.00 | 75 | 1018.2 |
| 20260507120803 | 53 | 42 | 5.0 | 12.0 | 0.00 | 0.00 | 0.00 | 76 | 1018.4 |
| 20260507120302 | 53 | 47 | 7.0 | 12.0 | 0.00 | 0.00 | 0.00 | 75 | 1018.2 |
| 20260507115804 | 53 | 45 | 5.0 | 12.0 | 0.00 | 0.00 | 0.00 | 78 | 1018.3 |
| 20260507115306 | 51 | 54 | 5.0 | 12.0 | 0.00 | 0.00 | 0.00 | 80 | 1018.2 |
| 20260507114803 | 51 | 39 | 3.0 | 9.0 | 0.00 | 0.00 | 0.00 | 79 | 1018.4 |
| 20260507114303 | 51 | 18 | 5.0 | 10.0 | 0.00 | 0.00 | 0.00 | 79 | 1018.4 |
| 20260507113803 | 51 | 6 | 6.0 | 12.0 | 0.00 | 0.00 | 0.00 | 78 | 1018.4 |
| 20260507113303 | 51 | 358 | 5.0 | 9.0 | 0.00 | 0.00 | 0.00 | 78 | 1018.3 |
| 20260507112803 | 51 | 338 | 2.0 | 7.0 | 0.00 | 0.00 | 0.00 | 79 | 1018.3 |
| 20260507112307 | 51 | 355 | 2.0 | 7.0 | 0.00 | 0.00 | 0.00 | 79 | 1018.2 |
| 20260507111803 | 51 | 37 | 3.0 | 7.0 | 0.00 | 0.00 | 0.00 | 79 | 1018.3 |
| 20260507110803 | 51 | 38 | 5.0 | 9.0 | 0.00 | 0.00 | 0.00 | 78 | 1018.5 |
| 20260507110303 | 51 | 41 | 4.0 | 9.0 | 0.00 | 0.00 | 0.00 | 77 | 1018.4 |
| 20260507105803 | 52 | 37 | 6.0 | 12.0 | 0.00 | 0.00 | 0.00 | 77 | 1018.3 |
| 20260507105306 | 52 | 40 | 7.0 | 12.0 | 0.00 | 0.00 | 0.00 | 76 | 1018.4 |
| 20260507104804 | 52 | 38 | 3.0 | 12.0 | 0.00 | 0.00 | 0.00 | 77 | 1018.5 |
| 20260507104303 | 52 | 69 | 5.0 | 10.0 | 0.00 | 0.00 | 0.00 | 76 | 1018.4 |
| 20260507103306 | 52 | 349 | 6.0 | 10.0 | 0.00 | 0.00 | 0.00 | 77 | 1018.7 |
| 20260507102803 | 52 | 343 | 5.0 | 12.0 | 0.00 | 0.00 | 0.00 | 76 | 1018.7 |
| 20260507101303 | 52 | 37 | 4.0 | 7.0 | 0.00 | 0.00 | 0.00 | 72 | 1018.5 |
| 20260507100803 | 52 | 347 | 2.0 | 5.0 | 0.00 | 0.00 | 0.00 | 73 | 1018.6 |
| 20260507100303 | 52 | 107 | 4.0 | 6.0 | 0.00 | 0.00 | 0.00 | 71 | 1018.6 |
| 20260507095803 | 53 | 67 | 1.0 | 5.0 | 0.00 | 0.00 | 0.00 | 71 | 1018.5 |
| 20260507095305 | 52 | 91 | 4.0 | 6.0 | 0.00 | 0.00 | 0.00 | 70 | 1018.6 |
| 20260507094803 | 53 | 61 | 3.0 | 5.0 | 0.00 | 0.00 | 0.00 | 71 | 1018.5 |
| 20260507094303 | 52 | 97 | 2.0 | 5.0 | 0.00 | 0.00 | 0.00 | 73 | 1018.5 |
| 20260507093804 | 52 | 89 | 3.0 | 8.0 | 0.00 | 0.00 | 0.00 | 72 | 1018.5 |
| 20260507093303 | 52 | 158 | 5.0 | 8.0 | 0.00 | 0.00 | 0.00 | 71 | 1018.5 |
| 20260507092803 | 52 | 106 | 4.0 | 6.0 | 0.00 | 0.00 | 0.00 | 71 | 1018.5 |
| 20260507092306 | 52 | 172 | 3.0 | 6.0 | 0.00 | 0.00 | 0.00 | 73 | 1018.5 |
| 20260507091803 | 52 | 117 | 5.0 | 9.0 | 0.00 | 0.00 | 0.00 | 72 | 1018.5 |
| 20260507090804 | 52 | 134 | 3.0 | 7.0 | 0.00 | 0.00 | 0.00 | 74 | 1018.6 |
| 20260507090303 | 52 | 73 | 6.0 | 10.0 | 0.00 | 0.00 | 0.00 | 74 | 1018.5 |
| 20260507084803 | 51 | 84 | 7.0 | 10.0 | 0.00 | 0.00 | 0.00 | 73 | 1018.5 |
| 20260507083805 | 51 | 89 | 6.0 | 10.0 | 0.00 | 0.00 | 0.00 | 77 | 1018.4 |
| 20260507083303 | 50 | 135 | 3.0 | 7.0 | 0.00 | 0.00 | 0.00 | 78 | 1018.6 |
| 20260507081803 | 49 | 105 | 6.0 | 8.0 | 0.00 | 0.00 | 0.00 | 78 | 1018.4 |
| 20260507081303 | 49 | 96 | 3.0 | 6.0 | 0.00 | 0.00 | 0.00 | 79 | 1018.5 |
| 20260507080803 | 49 | 102 | 3.0 | 5.0 | 0.00 | 0.00 | 0.00 | 79 | 1018.5 |
| 20260507080303 | 49 | 86 | 3.0 | 5.0 | 0.00 | 0.00 | 0.00 | 78 | 1018.5 |
| 20260507075803 | 49 | 98 | 3.0 | 6.0 | 0.00 | 0.00 | 0.00 | 79 | 1018.5 |
| 20260507075306 | 49 | 97 | 3.0 | 3.0 | 0.00 | 0.00 | 0.00 | 79 | 1018.3 |
| 20260507074804 | 49 | 97 | 4.0 | 6.0 | 0.00 | 0.00 | 0.00 | 78 | 1018.3 |
| 20260507074303 | 49 | 96 | 6.0 | 8.0 | 0.00 | 0.00 | 0.00 | 78 | 1018.3 |
| 20260507073803 | 49 | 106 | 5.0 | 8.0 | 0.00 | 0.00 | 0.00 | 78 | 1018.2 |
| 20260507073303 | 49 | 107 | 6.0 | 10.0 | 0.00 | 0.00 | 0.00 | 78 | 1018.2 |
| 20260507072803 | 49 | 114 | 6.0 | 9.0 | 0.00 | 0.00 | 0.00 | 78 | 1018.2 |
| 20260507072306 | 49 | 122 | 6.0 | 8.0 | 0.00 | 0.00 | 0.00 | 78 | 1018.2 |
| 20260507071803 | 49 | 119 | 7.0 | 9.0 | 0.00 | 0.00 | 0.00 | 78 | 1018.0 |
| 20260507071303 | 49 | 138 | 7.0 | 10.0 | 0.00 | 0.00 | 0.00 | 78 | 1018.0 |
| 20260507070804 | 48 | 97 | 9.0 | 12.0 | 0.00 | 0.00 | 0.00 | 80 | 1018.1 |
| 20260507070303 | 48 | 117 | 7.0 | 12.0 | 0.00 | 0.00 | 0.00 | 81 | 1018.2 |
| 20260507065803 | 48 | 112 | 7.0 | 10.0 | 0.00 | 0.00 | 0.00 | 82 | 1018.1 |
| 20260507064803 | 48 | 114 | 7.0 | 8.0 | 0.00 | 0.00 | 0.00 | 83 | 1018.0 |
| 20260507064303 | 47 | 111 | 6.0 | 8.0 | 0.00 | 0.00 | 0.00 | 83 | 1018.0 |
| 20260507063803 | 47 | 112 | 6.0 | 7.0 | 0.00 | 0.00 | 0.00 | 84 | 1017.9 |
| 20260507063304 | 47 | 115 | 6.0 | 7.0 | 0.00 | 0.00 | 0.00 | 84 | 1018.0 |
| 20260507062803 | 47 | 136 | 5.0 | 6.0 | 0.00 | 0.00 | 0.00 | 84 | 1017.9 |
| 20260507062306 | 47 | 114 | 4.0 | 5.0 | 0.00 | 0.00 | 0.00 | 85 | 1018.0 |
| 20260507061804 | 47 | 142 | 3.0 | 3.0 | 0.00 | 0.00 | 0.00 | 85 | 1018.0 |
| 20260507061303 | 47 | 157 | 3.0 | 3.0 | 0.00 | 0.00 | 0.00 | 86 | 1018.0 |
| 20260507060803 | 47 | 152 | 3.0 | 3.0 | 0.00 | 0.00 | 0.00 | 86 | 1018.0 |
| 20260507055803 | 46 | 138 | 2.0 | 3.0 | 0.00 | 0.00 | 0.00 | 86 | 1017.9 |
| 20260507055306 | 46 | 142 | 2.0 | 3.0 | 0.00 | 0.00 | 0.00 | 86 | 1017.8 |
| 20260507054805 | 46 | 143 | 2.0 | 3.0 | 0.00 | 0.00 | 0.00 | 87 | 1017.7 |
| 20260507054303 | 46 | 142 | 2.0 | 2.0 | 0.00 | 0.00 | 0.00 | 86 | 1017.7 |
| 20260507052805 | 46 | 133 | 2.0 | 2.0 | 0.00 | 0.03 | 0.00 | 86 | 1017.6 |
| 20260507051805 | 46 | 136 | 2.0 | 3.0 | 0.00 | 0.04 | 0.00 | 86 | 1017.6 |
| 20260507051303 | 46 | 140 | 2.0 | 3.0 | 0.00 | 0.04 | 0.00 | 86 | 1017.6 |
| 20260507050803 | 46 | 136 | 2.0 | 3.0 | 0.00 | 0.04 | 0.00 | 87 | 1017.6 |
| 20260507050304 | 46 | 128 | 2.0 | 3.0 | 0.00 | 0.04 | 0.00 | 87 | 1017.6 |
| 20260507045803 | 46 | 127 | 3.0 | 3.0 | 0.00 | 0.04 | 0.00 | 87 | 1017.6 |
| 20260507045306 | 45 | 125 | 2.0 | 3.0 | 0.00 | 0.04 | 0.00 | 87 | 1017.6 |
| 20260507044803 | 45 | 124 | 2.0 | 3.0 | 0.00 | 0.04 | 0.00 | 86 | 1017.5 |
| 20260507044304 | 45 | 122 | 2.0 | 3.0 | 0.00 | 0.04 | 0.00 | 86 | 1017.5 |
| 20260507043303 | 45 | 135 | 2.0 | 3.0 | 0.00 | 0.04 | 0.00 | 87 | 1017.5 |
| 20260507042306 | 45 | 136 | 0.0 | 0.0 | 0.00 | 0.04 | 0.00 | 87 | 1017.4 |
| 20260507041803 | 45 | 124 | 0.0 | 0.0 | 0.00 | 0.04 | 0.00 | 88 | 1017.3 |
| 20260507041303 | 46 | 122 | 0.0 | 0.0 | 0.00 | 0.04 | 0.00 | 87 | 1017.2 |
| 20260507040304 | 46 | 123 | 0.0 | 0.0 | 0.00 | 0.04 | 0.00 | 87 | 1017.2 |
| 20260507035804 | 46 | 146 | 0.0 | 0.0 | 0.00 | 0.04 | 0.00 | 87 | 1017.2 |
| 20260507034803 | 46 | 146 | 0.0 | 0.0 | 0.00 | 0.04 | 0.00 | 87 | 1017.2 |
| 20260507033805 | 46 | 139 | 0.0 | 0.0 | 0.00 | 0.04 | 0.00 | 86 | 1017.1 |
| 20260507033303 | 46 | 143 | 0.0 | 0.0 | 0.00 | 0.04 | 0.00 | 86 | 1017.1 |
| 20260507032803 | 46 | 146 | 0.0 | 1.0 | 0.00 | 0.04 | 0.00 | 86 | 1017.1 |
| 20260507032305 | 46 | 146 | 1.0 | 2.0 | 0.00 | 0.04 | 0.00 | 86 | 1017.1 |
| 20260507031804 | 46 | 146 | 2.0 | 2.0 | 0.00 | 0.04 | 0.00 | 86 | 1017.1 |
| 20260507031305 | 46 | 146 | 1.0 | 2.0 | 0.00 | 0.04 | 0.00 | 86 | 1017.1 |
| 20260507030803 | 46 | 147 | 1.0 | 2.0 | 0.00 | 0.04 | 0.00 | 86 | 1017.1 |
| 20260507030303 | 46 | 147 | 2.0 | 3.0 | 0.00 | 0.04 | 0.00 | 86 | 1017.1 |
| 20260507025803 | 46 | 151 | 2.0 | 3.0 | 0.00 | 0.04 | 0.00 | 86 | 1017.1 |